Location: Prague
(50.0830°N, 14.4670°E)
Time: 02:33:53
(UTC+02:00)

FO-29 - Pass Details

Date: 04 April 2023
Orbit: 799 x 1322 km, 98.5° (Epoch: 29 May)

Event Time Altitude Azimuth Distance (km) Brightness Sun altitude
Rises 04:55:09 0° 19° (NNE) 4,269 13.6 -15.6°
Reaches altitude 10° 04:58:23 10° 29° (NNE) 3,245 13.1 -15.2°
Maximum altitude 05:04:49 30° 89° (E) 1,959 11.8 -14.3°
Drops below altitude 10° 05:10:40 10° 149° (SSE) 2,936 12.1 -13.4°
Sets 05:13:25 0° 160° (SSE) 3,807 12.5 -13.0°
